• în România
  • Lista ţărilor
  • Pe 7 zile
  • Temperatura apei
  • Hartă satelitară
  • Meteo pe hartă
  • Widget-uri
  • user-avatar
    Intrare

    Meteo pe oră la Elbasan

    Astăzi, 26 Iunie, Luni

    Timp Temperatura Precipitaţii Vânt Presiune Umiditate
    00:00 +22°C° 0 mm 1 m/s 733 mmHg 83%
    01:00 +19°C° 0 mm 0 m/s 733 mmHg 85%
    02:00 +19°C° 0,1 mm 0 m/s 733 mmHg 85%
    03:00 +19°C° 0,1 mm 0 m/s 733 mmHg 85%
    04:00 +18°C° 0,1 mm 0 m/s 733 mmHg 86%
    05:00 +21°C° 0 mm 0 m/s 733 mmHg 75%
    06:00 +24°C° 0 mm 0 m/s 733 mmHg 65%
    07:00 +28°C° 0 mm 0 m/s 733 mmHg 53%
    08:00 +31°C° 0 mm 1 m/s 733 mmHg 47%
    09:00 +32°C° 0 mm 1 m/s 733 mmHg 42%
    10:00 +34°C° 0 mm 2 m/s 733 mmHg 37%
    11:00 +35°C° 0,1 mm 2 m/s 733 mmHg 36%
    12:00 +35°C° 0,1 mm 3 m/s 733 mmHg 36%
    13:00 +35°C° 0 mm 2 m/s 733 mmHg 39%
    14:00 +35°C° 0,1 mm 2 m/s 733 mmHg 40%
    15:00 +34°C° 0,1 mm 3 m/s 733 mmHg 41%
    16:00 +34°C° 0,1 mm 3 m/s 733 mmHg 42%
    17:00 +30°C° 0 mm 2 m/s 733 mmHg 53%
    18:00 +28°C° 0 mm 2 m/s 732 mmHg 64%
    19:00 +25°C° 0 mm 1 m/s 732 mmHg 75%
    20:00 +24°C° 0,1 mm 1 m/s 733 mmHg 81%
    21:00 +22°C° 0,1 mm 1 m/s 733 mmHg 86%
    22:00 +19°C° 0,1 mm 0 m/s 733 mmHg 91%
    23:00 +19°C° 0 mm 0 m/s 733 mmHg 90%

    Mâine, 27 Iunie, Marţi

    Timp Temperatura Precipitaţii Vânt Presiune Umiditate
    00:00 +18°C° 0 mm 0 m/s 733 mmHg 90%
    01:00 +18°C° 0 mm 0 m/s 733 mmHg 90%
    02:00 +18°C° 0 mm 0 m/s 733 mmHg 90%
    03:00 +17°C° 0 mm 0 m/s 733 mmHg 90%
    04:00 +17°C° 0 mm 0 m/s 733 mmHg 89%
    05:00 +20°C° 0 mm 0 m/s 733 mmHg 79%
    06:00 +23°C° 0 mm 0 m/s 734 mmHg 69%
    07:00 +26°C° 0 mm 0 m/s 734 mmHg 59%
    08:00 +28°C° 0 mm 0 m/s 734 mmHg 52%
    09:00 +31°C° 0 mm 1 m/s 734 mmHg 45%
    10:00 +33°C° 0 mm 1 m/s 734 mmHg 38%
    11:00 +34°C° 0 mm 2 m/s 734 mmHg 35%
    12:00 +35°C° 0 mm 3 m/s 734 mmHg 33%
    13:00 +36°C° 0 mm 3 m/s 733 mmHg 30%
    14:00 +35°C° 0 mm 3 m/s 733 mmHg 32%
    15:00 +34°C° 0 mm 3 m/s 733 mmHg 34%
    16:00 +34°C° 0 mm 3 m/s 733 mmHg 36%
    17:00 +30°C° 0 mm 2 m/s 732 mmHg 46%
    18:00 +27°C° 0 mm 1 m/s 732 mmHg 56%
    19:00 +24°C° 0 mm 1 m/s 732 mmHg 66%
    20:00 +23°C° 0 mm 1 m/s 732 mmHg 69%
    21:00 +22°C° 0 mm 1 m/s 733 mmHg 72%
    22:00 +21°C° 0 mm 1 m/s 733 mmHg 74%
    23:00 +21°C° 0 mm 1 m/s 733 mmHg 73%

    Poimâine, 28 Iunie, Miercuri

    Timp Temperatura Precipitaţii Vânt Presiune Umiditate
    00:00 +21°C° 0 mm 1 m/s 733 mmHg 72%
    01:00 +20°C° 0 mm 1 m/s 733 mmHg 71%
    02:00 +20°C° 0 mm 1 m/s 732 mmHg 70%
    03:00 +20°C° 0 mm 2 m/s 732 mmHg 69%
    04:00 +20°C° 0 mm 2 m/s 732 mmHg 67%
    05:00 +23°C° 0 mm 2 m/s 732 mmHg 60%
    06:00 +26°C° 0 mm 1 m/s 732 mmHg 53%
    07:00 +29°C° 0 mm 1 m/s 733 mmHg 46%
    08:00 +30°C° 0 mm 2 m/s 733 mmHg 41%
    09:00 +32°C° 0 mm 2 m/s 733 mmHg 36%
    10:00 +35°C° 0 mm 2 m/s 733 mmHg 31%
    11:00 +35°C° 0 mm 3 m/s 733 mmHg 30%
    12:00 +36°C° 0 mm 3 m/s 733 mmHg 29%
    13:00 +36°C° 0 mm 4 m/s 732 mmHg 29%
    14:00 +35°C° 0 mm 4 m/s 732 mmHg 31%
    15:00 +35°C° 0 mm 3 m/s 732 mmHg 34%
    16:00 +34°C° 0 mm 3 m/s 732 mmHg 37%
    17:00 +30°C° 0 mm 2 m/s 732 mmHg 47%
    18:00 +28°C° 0 mm 2 m/s 732 mmHg 58%
    19:00 +25°C° 0 mm 1 m/s 732 mmHg 68%
    20:00 +24°C° 0 mm 1 m/s 732 mmHg 69%
    21:00 +23°C° 0 mm 1 m/s 732 mmHg 70%
    22:00 +22°C° 0 mm 1 m/s 733 mmHg 72%
    23:00 +22°C° 0 mm 1 m/s 732 mmHg 69%

    29 Iunie, Joi

    Timp Temperatura Precipitaţii Vânt Presiune Umiditate
    00:00 +23°C° 0 mm 2 m/s 732 mmHg 67%
    01:00 +23°C° 0 mm 2 m/s 732 mmHg 64%
    02:00 +23°C° 0 mm 2 m/s 732 mmHg 63%
    03:00 +21°C° 0 mm 2 m/s 732 mmHg 63%
    04:00 +21°C° 0 mm 2 m/s 732 mmHg 62%
    05:00 +25°C° 0 mm 2 m/s 732 mmHg 56%
    06:00 +28°C° 0 mm 2 m/s 732 mmHg 49%
    07:00 +30°C° 0 mm 2 m/s 733 mmHg 43%
    08:00 +34°C° 0 mm 3 m/s 733 mmHg 37%
    09:00 +36°C° 0 mm 4 m/s 733 mmHg 32%
    10:00 +39°C° 0 mm 5 m/s 733 mmHg 26%
    11:00 +39°C° 0 mm 6 m/s 733 mmHg 25%
    12:00 +40°C° 0 mm 6 m/s 733 mmHg 24%
    13:00 +40°C° 0 mm 7 m/s 733 mmHg 24%
    14:00 +39°C° 0 mm 7 m/s 732 mmHg 25%
    15:00 +38°C° 0 mm 6 m/s 732 mmHg 27%
    16:00 +38°C° 0 mm 6 m/s 732 mmHg 28%
    17:00 +34°C° 0 mm 4 m/s 732 mmHg 38%
    18:00 +30°C° 0 mm 3 m/s 732 mmHg 48%
    19:00 +27°C° 0 mm 2 m/s 733 mmHg 58%
    20:00 +26°C° 0 mm 2 m/s 733 mmHg 59%
    21:00 +25°C° 0 mm 2 m/s 733 mmHg 61%
    22:00 +24°C° 0 mm 2 m/s 734 mmHg 62%
    23:00 +23°C° 0 mm 2 m/s 734 mmHg 62%

    30 Iunie, Vineri

    Timp Temperatura Precipitaţii Vânt Presiune Umiditate
    00:00 +23°C° 0 mm 2 m/s 734 mmHg 62%
    01:00 +23°C° 0 mm 2 m/s 734 mmHg 62%
    02:00 +21°C° 0 mm 2 m/s 734 mmHg 63%
    03:00 +21°C° 0 mm 2 m/s 734 mmHg 64%
    04:00 +21°C° 0 mm 1 m/s 734 mmHg 64%
    05:00 +24°C° 0 mm 1 m/s 735 mmHg 57%
    06:00 +27°C° 0 mm 1 m/s 735 mmHg 49%
    07:00 +30°C° 0 mm 1 m/s 736 mmHg 42%
    08:00 +32°C° 0 mm 1 m/s 736 mmHg 36%
    09:00 +34°C° 0 mm 1 m/s 736 mmHg 31%
    10:00 +36°C° 0 mm 1 m/s 736 mmHg 25%
    11:00 +37°C° 0 mm 1 m/s 736 mmHg 23%
    12:00 +38°C° 0 mm 2 m/s 736 mmHg 22%
    13:00 +39°C° 0 mm 2 m/s 735 mmHg 21%
    14:00 +39°C° 0 mm 2 m/s 735 mmHg 22%
    15:00 +39°C° 0 mm 2 m/s 735 mmHg 24%
    16:00 +38°C° 0 mm 3 m/s 735 mmHg 25%
    17:00 +35°C° 0 mm 2 m/s 735 mmHg 35%
    18:00 +30°C° 0 mm 1 m/s 735 mmHg 45%
    19:00 +27°C° 0 mm 1 m/s 735 mmHg 55%
    20:00 +26°C° 0 mm 1 m/s 735 mmHg 55%
    21:00 +26°C° 0 mm 1 m/s 735 mmHg 56%
    22:00 +25°C° 0 mm 1 m/s 735 mmHg 57%
    23:00 +25°C° 0 mm 1 m/s 735 mmHg 54%

    1 Iulie, Sâmbătă

    Timp Temperatura Precipitaţii Vânt Presiune Umiditate
    00:00 +25°C° 0 mm 1 m/s 734 mmHg 52%
    01:00 +25°C° 0 mm 1 m/s 734 mmHg 50%
    02:00 +25°C° 0 mm 1 m/s 734 mmHg 49%
    03:00 +25°C° 0 mm 1 m/s 734 mmHg 49%
    04:00 +25°C° 0 mm 1 m/s 733 mmHg 49%
    05:00 +27°C° 0 mm 1 m/s 734 mmHg 45%
    06:00 +30°C° 0 mm 1 m/s 734 mmHg 40%
    07:00 +33°C° 0 mm 1 m/s 734 mmHg 36%
    08:00 +36°C° 0 mm 1 m/s 734 mmHg 31%
    09:00 +39°C° 0 mm 1 m/s 734 mmHg 25%
    10:00 +41°C° 0 mm 2 m/s 734 mmHg 20%
    11:00 +41°C° 0 mm 2 m/s 734 mmHg 19%
    12:00 +43°C° 0 mm 3 m/s 733 mmHg 17%
    13:00 +43°C° 0 mm 4 m/s 733 mmHg 16%
    14:00 +43°C° 0 mm 4 m/s 733 mmHg 18%
    15:00 +42°C° 0 mm 3 m/s 732 mmHg 19%
    16:00 +40°C° 0 mm 3 m/s 732 mmHg 20%
    17:00 +36°C° 0 mm 2 m/s 732 mmHg 29%
    18:00 +31°C° 0 mm 2 m/s 732 mmHg 39%
    19:00 +28°C° 0 mm 1 m/s 732 mmHg 48%
    20:00 +26°C° 0 mm 1 m/s 732 mmHg 52%
    21:00 +25°C° 0 mm 1 m/s 732 mmHg 56%
    22:00 +21°C° 0 mm 0 m/s 732 mmHg 59%
    23:00 +21°C° 0 mm 0 m/s 731 mmHg 58%
    Arată mai mult